カタログに戻る

REX

運用中軍事PO
NORAD 21527·PAYLOAD·🇺🇸 United States

打ち上げ Jun 29, 1991 から Vandenberg Space Force Base

Loading…

次のパス (今後24時間)

TLE

最新Source: Space-Track

元期: Sep 14, 2026, 00:06 UTC

1 21527U 91045A   26257.00432633  .00000093  00000-0  34162-4 0  9991
2 21527  89.5280 255.4109 0070415  56.0997 304.6866 14.23597475827737

AllMySatでREXをリアルタイム追跡

Download on the App Store